Location: Stilling
(56.0622°N, 9.9882°E)
Time: 00:27:31
(UTC+00:00)

Cosmos 1633 Rocket - Pass Details

Date: 13 July 2020
Orbit: 608 x 623 km, 82.5° (Epoch: 03 August)

Event Time Altitude Azimuth Distance (km) Brightness Sun altitude
Exits shadow 23:43:36 18° 177° (S) 1,524 4.4 -12.2°
Maximum altitude 23:46:47 67° 98° (E) 681 3.2 -12.2°
Drops below altitude 10° 23:51:12 10° 16° (NNE) 2,007 7.1 -12.1°
Sets 23:53:27 0° 14° (NNE) 2,919 8.5 -12.1°
